Regional Weather Roundup
Issued by NWS

Home | Current Version | Previous Version | Graphics & Text | Print | Product List | Glossary On
Versions: 1 2 3 4 5 6 7 8 9 10 11 12 13 14 15 16 17 18 19 20 21 22 23 24 25 26 27 28 29 30 31 32 33 34 35 36 37 38 39 40 41 42 43 44 45 46 47 48 49 50
000
ASUS43 KTOP 200359
RWRKS

WEATHER ROUNDUP FOR KANSAS
NATIONAL WEATHER SERVICE GOODLAND KS
1000 PM CST FRI JAN 19 2018

NOTE:  "FAIR" INDICATES FEW OR NO CLOUDS BELOW 12,000 FEET WITH NO
SIGNIFICANT WEATHER AND/OR OBSTRUCTIONS TO VISIBILITY.

KSZ001>006-013>018-027>032-041>047-200500-
NORTHWEST KANSAS

CITY           SKY/WX    TMP DP  RH WIND       PRES   REMARKS
GOODLAND       CLOUDY    33  20  58 CALM      29.73R
HAYS           CLOUDY    39  18  42 S9        29.72R
HILL CITY      CLOUDY    38  19  46 CALM      29.69R
RUSSELL        CLOUDY    46  21  37 S16       29.70S
$$

KSZ061>065-074>080-084>089-200500-
SOUTHWEST KANSAS

CITY           SKY/WX    TMP DP  RH WIND       PRES   REMARKS
DODGE CITY     CLOUDY    47  16  29 S16       29.72S
GARDEN CITY    CLOUDY   N/A N/A N/A SW6       29.71R
GREAT BEND     CLOUDY    40  20  44 S10       29.74S WCI  33
LIBERAL        CLOUDY    38  15  39 S8        29.73S
$$

KSZ066>073-081>083-090>101-200500-
SOUTHEAST KANSAS

CITY           SKY/WX    TMP DP  RH WIND       PRES   REMARKS
CHANUTE        CLOUDY    45  34  65 S17       29.89R
COFFEYVILLE    CLOUDY    47  37  68 S18G26    29.91R
HUTCHINSON     CLOUDY    45  26  47 S10       29.78R
MEDICINE LODGE   N/A     45  23  42 SE10      29.78S
NEWTON         CLOUDY    44  26  49 S15       29.80R
PARSONS        CLOUDY    47  37  68 S14G21    29.91R
WICHITA INTL   PTCLDY    41  26  55 S12       29.81R
WICHITA JABRA  CLOUDY    44  27  51 S13       29.82R
WICHITA MCCONL CLOUDY    45  26  48 S17       29.81S
WINFIELD       CLOUDY    45  33  63 S14       29.85S
$$

KSZ007>012-019>026-033>040-048>060-102>105-200500-
NORTHEAST KANSAS

CITY           SKY/WX    TMP DP  RH WIND       PRES   REMARKS
CONCORDIA      CLOUDY    44  25  47 S16       29.72F
EMPORIA        CLOUDY    41  26  55 S13       29.83R
LAWRENCE       CLOUDY    42  29  59 S8G18     29.84R
MANHATTAN      CLOUDY    40  26  57 SW7       29.78S
OLATHE IND     CLOUDY    42  31  64 S17       29.84R
OLATHE EXE     CLOUDY    42  31  64 SW15G25   29.83R
SALINA         CLOUDY    45  29  53 S12       29.76R
TOPEKA BILLARD CLOUDY    43  29  57 S8        29.82R
TOPEKA FORBES  CLOUDY    42  29  59 S13       29.81R
$$




USA.gov is the U.S. government's official web portal to all federal, state and local government web resources and services.